Regional Weather Roundup
Issued by NWS Kansas City/Pleasant Hill, MO

Home | Current Version | Previous Version | Graphics & Text | Print | Product List | Glossary Off
Versions: 1 2 3 4 5 6 7 8 9 10 11 12 13 14 15 16 17 18 19 20 21 22 23 24 25 26 27 28 29 30 31 32 33 34 35 36 37 38 39 40 41 42 43 44 45 46 47 48 49 50

000
ASUS43 KEAX 231810
RWREAX

WEATHER ROUNDUP FOR EASTERN KANSAS AND NORTHWEST MISSOURI
NATIONAL WEATHER SERVICE KANSAS CITY/PLEASANT HILL MO
100 PM CDT WED APR 23 2014

KSZ040-057-103>105-MOZ028-029-037-043-231900-
...KANSAS CITY METROPOLITAN AREA...

CITY           SKY/WX    TMP DP  RH WIND       PRES   REMARKS
K.C. INTL      FAIR      67  38  34 SE21      29.89F
6HR MIN TEMP:  53; 6HR MAX TEMP:  67; 6HR PCP: TRACE;

K.C. DOWNTOWN  FAIR      69  38  32 SE17G26   29.90F
6HR MIN TEMP:  56; 6HR MAX TEMP:  70; 6HR PCP: TRACE;

LEES SUMMIT    FAIR      66  39  37 SE14G22   29.93F
6HR MIN TEMP:  53; 6HR MAX TEMP:  66;

OLATHE - IXD   FAIR      70  41  34 SE18G30   29.89F
6HR MIN TEMP:  53; 6HR MAX TEMP:  70;

OLATHE - OJC   FAIR      67  40  37 SE18G26   29.89F
6HR MIN TEMP:  53; 6HR MAX TEMP:  67;

LAWRENCE       FAIR      74  41  30 SE23G30   29.86F

$$

MOZ001>008-011>017-020>025-030>033-038>040-044>046-053-054-231900-
...NORTHERN AND CENTRAL MISSOURI...

CITY           SKY/WX    TMP DP  RH WIND       PRES   REMARKS
ST. JOSEPH     CLOUDY    59  40  49 SE17G23   29.87F
6HR MIN TEMP:  51; 6HR MAX TEMP:  60; 6HR PCP:  0.05;

MOSBY          FAIR      64  36  34 SE16G24   29.91F
WARRENSBURG    CLOUDY   N/A N/A N/A SE14G21   29.95F
WHITEMAN AFB   PTSUNNY   62  31  30 SE10      29.97F
6HR MIN TEMP:  49; 6HR MAX TEMP:  62;

CLINTON        FAIR      66  41  39 SE9G16    29.96F
SEDALIA        CLOUDY    62  38  40 SE13      29.99F
6HR MIN TEMP:  50; 6HR MAX TEMP:  62; 6HR PCP: TRACE;

WARSAW         NOT AVBL
MARSHALL         N/A     66  39  37 E17       29.99F
CHILLICOTHE      N/A     56  42  59 SE12      29.98F
6HR MIN TEMP:  51; 6HR MAX TEMP:  56; 6HR PCP:  0.02;

KIRKSVILLE     LGT RAIN  55  36  48 SE17G23   30.01F
6HR MIN TEMP:  47; 6HR MAX TEMP:  56; 6HR PCP: TRACE;


$$

MOZ041-047>049-056>058-063>065-088>090-097-231900-
...EASTERN AND SOUTHERN MISSOURI...

CITY           SKY/WX    TMP DP  RH WIND       PRES   REMARKS
ST. LOUIS INTL FAIR      63  37  38 SE13G22   30.09F
6HR MIN TEMP:  47; 6HR MAX TEMP:  63;

SPIRIT OF STL  FAIR      61  38  42 E12       30.07F
COLUMBIA       PTSUNNY   62  35  36 SE12      30.03F
JEFFERSON CITY FAIR      64  33  31 E10       30.02F
MEXICO         CLOUDY    59  39  47 E10       30.06F
HANNIBAL       PTSUNNY   63  27  25 SE9       30.08F
ROLLA          PTSUNNY   64  33  31 SE9       30.00F
LEBANON        FAIR      70  36  28 SE9G16    29.99F
OSAGE BEACH    FAIR      66  34  30 SE7       30.00F
SPRINGFIELD    FAIR      72  42  34 S18G24    29.95F
BRANSON        PTSUNNY   70  41  35 SE13G18   29.99F
NEVADA         FAIR      70  45  40 S14       29.94F
JOPLIN         FAIR      76  45  33 S12       29.90F
WEST PLAINS    FAIR      68  35  29 SE10G17   30.03F
MALDEN         FAIR      70  37  30 NE8       30.04F

$$

IAZ060-094-KSZ022-034>040-054-083-096-NEZ052-066-093-231900-
...KANSAS...SOUTHEAST NEBRASKA AND IOWA...

CITY           SKY/WX    TMP DP  RH WIND       PRES   REMARKS
TOPEKA         FAIR      73  41  31 SE21      29.83F
6HR MIN TEMP:  57; 6HR MAX TEMP:  73;

MANHATTAN      FAIR      75  42  30 S21G33    29.76F
EMPORIA        FAIR      74  44  34 S23G33    29.80F
CHANUTE        FAIR      76  46  34 S17G24    29.87F
WICHITA        PTSUNNY   81  50  33 S28G36    29.77F
OMAHA          LGT RAIN  51  43  74 SE28G40   29.77F
LINCOLN        PTSUNNY   59  45  59 SE23G31   29.70F
LAMONI         CLOUDY    51  38  60 SE12      29.97S
DES MOINES     RAIN      47  39  74 SE12G21   30.01S

$$




USA.gov is the U.S. government's official web portal to all federal, state and local government web resources and services.